TimeEDT,TemperatureF,Dew PointF,Humidity,Sea Level PressureIn,VisibilityMPH,Wind Direction,Wind SpeedMPH,Gust SpeedMPH,PrecipitationIn,Events,Conditions,WindDirDegrees,DateUTC
12:53 AM,60.1,33.1,36,30.03,10.0,SSW,5.8,-,N/A,,Clear,200,2013-04-07 04:53:00
1:53 AM,59.0,34.0,39,30.02,10.0,Variable,5.8,-,N/A,,Clear,0,2013-04-07 05:53:00
2:53 AM,57.9,34.0,41,30.00,10.0,South,6.9,-,N/A,,Clear,190,2013-04-07 06:53:00
3:53 AM,57.0,34.0,42,29.99,10.0,SW,6.9,-,N/A,,Clear,220,2013-04-07 07:53:00
4:53 AM,57.0,33.1,40,29.99,10.0,Variable,4.6,-,N/A,,Clear,0,2013-04-07 08:53:00
5:53 AM,55.9,33.1,42,30.00,10.0,SSW,6.9,-,N/A,,Clear,210,2013-04-07 09:53:00
6:53 AM,55.9,33.1,42,30.00,10.0,SSW,6.9,-,N/A,,Clear,200,2013-04-07 10:53:00
7:53 AM,57.0,34.0,42,30.02,10.0,Variable,5.8,-,N/A,,Clear,0,2013-04-07 11:53:00
8:53 AM,60.1,36.0,41,30.03,10.0,Variable,6.9,-,N/A,,Clear,0,2013-04-07 12:53:00
9:53 AM,63.0,37.9,40,30.04,10.0,Variable,6.9,24.2,N/A,,Clear,0,2013-04-07 13:53:00
10:53 AM,66.9,39.9,37,30.04,10.0,Calm,Calm,-,N/A,,Clear,0,2013-04-07 14:53:00
11:53 AM,68.0,39.9,36,30.04,10.0,WSW,8.1,23.0,N/A,,Scattered Clouds,240,2013-04-07 15:53:00
12:53 PM,69.1,41.0,36,30.03,10.0,SW,9.2,23.0,N/A,,Overcast,220,2013-04-07 16:53:00
1:53 PM,71.1,41.0,34,30.01,10.0,WSW,10.4,23.0,N/A,,Overcast,240,2013-04-07 17:53:00
2:53 PM,72.0,42.1,34,30.00,10.0,Variable,3.5,-,N/A,,Overcast,0,2013-04-07 18:53:00
3:53 PM,73.0,41.0,31,29.98,10.0,Variable,6.9,19.6,N/A,,Overcast,0,2013-04-07 19:53:00
4:53 PM,71.1,39.0,31,29.99,10.0,Variable,3.5,-,N/A,,Mostly Cloudy,0,2013-04-07 20:53:00
5:53 PM,71.1,37.9,30,29.99,10.0,Variable,5.8,-,N/A,,Overcast,0,2013-04-07 21:53:00
6:53 PM,70.0,37.9,31,29.99,10.0,Variable,4.6,-,N/A,,Overcast,0,2013-04-07 22:53:00
7:53 PM,66.9,37.0,33,29.99,10.0,WSW,5.8,-,N/A,,Mostly Cloudy,250,2013-04-07 23:53:00
8:53 PM,66.0,36.0,33,30.00,10.0,Calm,Calm,-,N/A,,Mostly Cloudy,0,2013-04-08 00:53:00
9:53 PM,64.0,37.0,37,30.01,10.0,Calm,Calm,-,N/A,,Clear,0,2013-04-08 01:53:00
10:53 PM,63.0,37.0,38,30.01,10.0,South,4.6,-,N/A,,Clear,190,2013-04-08 02:53:00
11:53 PM,63.0,37.9,40,30.01,10.0,SSW,4.6,-,N/A,,Clear,210,2013-04-08 03:53:00